Mansfield, OH

3:44 AM EST on December 11, 2019 (GMT -0500)
Mansfield Lahm Regional

Weather History for KMFD - November, 2019

Change the Weather History Date:

Saturday, November 16, 2019

  Actual Average Record
Temperature  
Mean Temperature 34 °F 41 °F  
Max Temperature 41 °F 49 °F 70 °F (1931)
Min Temperature 28 °F 33 °F 3 °F (1933)
Degree Days  
Heating Degree Days 30 24  
Month to date heating degree days 479 335  
Since 1 July heating degree days 781 903  
Cooling Degree Days 0 0  
Month to date cooling degree days 0 0  
Year to date cooling degree days 979 632  
Moisture  
Dew Point 23 °F    
Average Humidity 66    
Maximum Humidity 85    
Minimum Humidity 48    
Precipitation  
Precipitation 0.00 in 0.13 in 2.07 in (1955)
Month to date precipitation 0.60 2.01  
Year to date precipitation 43.79 39.10  
Snow  
Snow 0.00 in 0.00 in - ()
Month to date snowfall 3.0 0.7  
Since 1 July snowfall 3.0 1.2  
Since 1 September snowfall 3.0 1.2  
Snow Depth 1.00 in    
Sea Level Pressure  
Sea Level Pressure 30.35 in    
Wind  
Wind Speed 7 mph ()    
Max Wind Speed 17 mph    
Max Gust Speed 21 mph    
Visibility 9.4 miles    
Events      
T = Trace of Precipitation, MM = Missing Value Source: Averaged Metar Reports

Daily Weather History Graph

Daily Weather History Graph

Search for Another Location

Airport or City:

Astronomy

Nov. 16, 2019 Rise Set
Actual Time 7:18 AM EST 5:11 PM EST
Civil Twilight 6:48 AM EST 5:40 PM EST
Nautical Twilight 6:15 AM EST 6:13 PM EST
Astronomical Twilight 5:42 AM EST 6:46 PM EST
Moon 8:42 PM EST (11/16) 11:11 AM EST (11/16)
Length of Visible Light 10h 52m
Length of Day
9h 53m
Waning Gibbous, 82% of the Moon is Illuminated
Nov 16
Waning Gibbous
Nov 19
Last Quarter
Nov 26
New
Dec 4
First Quarter
Dec 12
Full

Hourly Weather History & Observations

Time (EST) Temp. Windchill Dew Point Humidity Pressure Visibility Wind Dir Wind Speed Gust Speed Precip Events Conditions
12:52 AM 33.1 °F 28.7 °F 28.0 °F 82% 30.40 in 7.0 mi NNE 4.6 mph - N/A   Overcast
1:52 AM 33.1 °F 28.7 °F 28.0 °F 82% 30.39 in 7.0 mi NNE 4.6 mph - N/A   Overcast
3:52 AM 33.1 °F 30.0 °F 28.9 °F 85% 30.37 in 6.0 mi NNW 3.5 mph - N/A   Overcast
4:52 AM 33.1 °F 28.7 °F 28.9 °F 85% 30.38 in 6.0 mi North 4.6 mph - N/A   Overcast
5:52 AM 34.0 °F 26.6 °F 28.0 °F 79% 30.39 in 9.0 mi NNE 9.2 mph - N/A   Overcast
6:52 AM 33.1 °F 24.9 °F 26.1 °F 75% 30.41 in 10.0 mi NNE 10.4 mph - N/A   Overcast
7:20 AM 33.1 °F 26.9 °F 25.0 °F 72% 30.37 in 10.0 mi NNE 6.9 mph - N/A   Overcast
7:50 AM 33.8 °F 27.0 °F 24.8 °F 70% 30.38 in 10.0 mi NE 8.1 mph - N/A   Mostly Cloudy
7:52 AM 33.1 °F 26.9 °F 24.1 °F 70% 30.42 in 10.0 mi NE 6.9 mph - N/A   Mostly Cloudy
8:52 AM 35.1 °F 26.9 °F 24.1 °F 64% 30.43 in 10.0 mi NE 11.5 mph - N/A   Mostly Cloudy
9:52 AM 36.0 °F 27.1 °F 24.1 °F 62% 30.43 in 10.0 mi NE 13.8 mph - N/A   Mostly Cloudy
10:13 AM 37.0 °F 29.8 °F 25.0 °F 62% 30.38 in 10.0 mi NE 10.4 mph 19.6 mph N/A   Scattered Clouds
10:52 AM 37.0 °F 28.9 °F 24.1 °F 59% 30.41 in 10.0 mi NNE 12.7 mph - N/A   Clear
11:52 AM 39.0 °F 32.3 °F 24.1 °F 55% 30.39 in 10.0 mi North 10.4 mph - N/A   Clear
12:52 PM 39.9 °F 33.4 °F 24.1 °F 53% 30.35 in 10.0 mi NNE 10.4 mph - N/A   Clear
1:52 PM 39.9 °F 32.1 °F 24.1 °F 53% 30.32 in 10.0 mi NNE 13.8 mph 18.4 mph N/A   Clear
2:52 PM 39.9 °F 33.9 °F 23.0 °F 51% 30.31 in 10.0 mi NNE 9.2 mph - N/A   Clear
3:52 PM 39.9 °F 33.9 °F 21.9 °F 49% 30.30 in 10.0 mi ENE 9.2 mph - N/A   Clear
4:52 PM 37.0 °F 31.6 °F 21.0 °F 52% 30.31 in 10.0 mi NNE 6.9 mph - N/A   Clear
5:52 PM 33.1 °F 25.5 °F 19.0 °F 56% 30.30 in 10.0 mi NNE 9.2 mph - N/A   Clear
6:52 PM 30.9 °F 24.3 °F 19.0 °F 61% 30.32 in 10.0 mi NNE 6.9 mph - N/A   Clear
7:52 PM 30.0 °F 22.4 °F 19.9 °F 66% 30.30 in 10.0 mi NE 8.1 mph - N/A   Clear
8:52 PM 28.9 °F 21.9 °F 19.9 °F 69% 30.29 in 10.0 mi ENE 6.9 mph - N/A   Clear
9:52 PM 28.9 °F 21.9 °F 19.0 °F 67% 30.27 in 10.0 mi ENE 6.9 mph - N/A   Clear
10:52 PM 28.0 °F 20.8 °F 17.1 °F 63% 30.25 in 10.0 mi ENE 6.9 mph - N/A   Clear
11:52 PM 28.9 °F 22.8 °F 17.1 °F 61% 30.23 in 10.0 mi East 5.8 mph - N/A   Clear